Location: Kaarina
(60.4167°N, 22.4167°E)
Time: 01:37:37
(UTC+03:00)

CZ-2C R/B - Pass Details

Date: 24 August 2019
Orbit: 785 x 871 km, 98.3° (Epoch: 16 September)

Event Time Altitude Azimuth Distance (km) Brightness Sun altitude
Rises 22:48:20 0° 17° (NNE) 3,311 6.3 -11.5°
Reaches altitude 10° 22:50:40 10° 20° (NNE) 2,386 5.5 -11.7°
Maximum altitude 22:55:56 71° 105° (ESE) 860 2.6 -12.1°
Drops below altitude 10° 23:01:17 10° 190° (S) 2,421 4.7 -12.5°
Enters shadow 23:02:40 - 191° (S) 2,967 5.2 -12.6°
